Regional Weather Roundup
Issued by NWS

Home | Current Version | Previous Version | Graphics & Text | Print | Product List | Glossary On
Versions: 1 2 3 4 5 6 7 8 9 10 11 12 13 14 15 16 17 18 19 20 21 22 23 24 25 26 27 28 29 30 31 32 33 34 35 36 37 38 39 40 41 42 43 44 45 46 47 48 49 50
000
ASUS45 KCYS 010710
RWRWY

WYOMING REGIONAL WEATHER ROUNDUP
NATIONAL WEATHER SERVICE CHEYENNE WY
100 AM MDT WED JUL 01 2015

NOTE:  "FAIR" INDICATES FEW OR NO CLOUDS BELOW 12,000 FEET
WITH NO SIGNIFICANT WEATHER AND/OR OBSTRUCTIONS TO VISIBILITY.

WYZ001-010800-
YELLOWSTONE NATIONAL PARK

CITY           SKY/WX    TMP DP  RH WIND       PRES   REMARKS
LK YELLOWSTONE   N/A     52  46  80 NW3       30.37R
W YELLOWSTONE  NOT AVBL

$$
WYZ002>013-054>058-071-098>099-010800-
NORTHERN WYOMING

CITY           SKY/WX    TMP DP  RH WIND       PRES   REMARKS
JACKSON        FAIR      52  48  87 N6        30.25R
CODY           FAIR      70  48  46 CALM      30.13R
GREYBULL       FAIR      72  56  57 SW3       30.02R
WORLAND        CLOUDY    72  58  61 S8        30.03R
SHERIDAN       FAIR      67  48  50 N6        30.06R
BUFFALO        FAIR      66  48  52 NW8       30.12R
GILLETTE       FAIR      61  54  77 CALM      30.04R
HULETT         FAIR      70  55  60 CALM      30.03R
NEWCASTLE      FAIR      64  55  72 CALM      30.02S

$$
WYZ014>020-022>026-101>103-010800-
CENTRAL WYOMING

CITY           SKY/WX    TMP DP  RH WIND       PRES   REMARKS
BIG PINEY      FAIR      60  47  61 NE5       30.29R
PINEDALE       FAIR      55  50  82 NW7       30.29S
DUBOIS         FAIR      59  43  55 NW5       30.29S
LANDER         FAIR      65  51  60 SW7       30.15R
RIVERTON       FAIR      66  54  65 SW9       30.16S
CASPER         FAIR      63  54  72 SW7       30.13S
DOUGLAS        FAIR      61  57  87 NW5       30.10F

$$
WYZ021-027>030-104>119-010800-
SOUTHERN WYOMING

CITY           SKY/WX    TMP DP  RH WIND       PRES   REMARKS
EVANSTON       FAIR      71  44  37 W17G24    30.31S
KEMMERER       FAIR      68  46  45 W8        30.31S
FORT BRIDGER   MOSUNNY   68  45  42 SW7       30.32S
ROCK SPRINGS   FAIR      63  53  70 NE3       30.25R
DIXON          FAIR      62  54  75 E6        30.26S
RAWLINS        FAIR      58  56  93 NE3       30.25S
SARATOGA       FAIR      59  52  77 S8        30.27S
LARAMIE        FAIR      58  55  90 SE8       30.25F
CHEYENNE       FAIR      60  56  86 W6        30.17F
TORRINGTON     FAIR      68  57  68 W5        30.03F
PINE BLUFFS    FAIR      59  59 100 W6        30.12S

$$



USA.gov is the U.S. government's official web portal to all federal, state and local government web resources and services.